EHI
3 2 1 0 0 0 0 0 0 0 1 1 1 0 0 1 1 1 0 0 0 1 1 1 0 0 1 1 1 0 0 0 0 0 0 0 0 1 2 2 1 2 2
3 2 1 0 0 0 0 0 0 0 0 0 0 0 0 0 1 1 0 0 0 0 0 0 0 0 1 2 1 0 0 0 0 0 0 0 0 0 1 2 1 1 1
3 2 1 1 1 1 0 1 1 0 0 0 0 0 0 0 0 0 0 0 0 0 0 0 0 0 1 1 1 0 0 0 0 0 0 0 0 0 0 1 2 1 0
3 2 2 2 2 2 1 1 1 0 0 0 0 0 0 0 0 0 0 0 0 0 0 0 0 0 0 0 0 0 0 0 0 0 0 0 0 0 1 2 3 3 2
3 3 4 3 3 3 2 1 1 0 0 0 0 0 0 0 0 0 0 1 0 0 0 0 0 0 0 0 0 0 0 0 0 0 0 0 0 1 3 4 4 5 6
4 4 4 3 3 3 1 0 0 0 0 0 0 0 0 0 0 0 0 0 0 0 0 0 0 0 0 0 0 0 0 0 0 0 0 0 0 1 3 5 4 5 7
4 3 3 3 3 2 1 0 0 0 0 0 0 0 0 0 0 0 0 0 0 0 0 0 0 0 0 0 0 0 0 0 0 0 0 0 0 1 2 3 3 3 4
3 2 1 3 3 2 1 0 0 0 0 0 0 0 0 0 0 0 0 0 0 0 0 0 0 0 0 0 0 0 0 0 0 0 0 0 0 0 1 2 2 2 2
3 1 0 1 1 1 0 0 0 0 0 0 0 0 0 0 0 0 0 0 0 0 0 0 0 0 0 0 0 1 1 0 0 0 0 0 0 0 0 1 1 1 1
1 1 0 0 0 0 0 0 0 0 0 0 0 0 0 0 0 0 0 0 0 0 0 0 0 0 0 0 0 1 1 0 0 0 0 0 0 0 0 0 0 1 1
1 1 0 0 0 0 0 0 0 0 0 0 0 0 0 0 0 0 0 0 0 0 0 0 0 0 0 0 0 0 0 0 0 0 0 1 0 0 0 0 0 1 1
0 0 0 0 0 0 0 0 0 0 0 0 0 0 0 0 0 0 0 0 0 0 0 0 0 0 0 0 0 0 0 0 0 0 1 2 2 1 1 0 0 1 1
0 0 0 0 0 0 0 0 0 0 0 0 0 0 0 0 0 0 0 0 0 0 0 0 0 0 0 0 0 0 0 0 0 0 2 3 3 3 2 1 1 1 0
1 0 0 0 0 0 0 0 0 0 0 0 0 0 0 0 0 0 0 0 0 0 0 0 0 0 0 0 0 0 0 0 0 0 1 3 3 3 2 2 1 0 0
2 1 0 1 0 0 0 0 0 0 0 0 0 0 0 0 0 0 0 0 0 0 0 0 0 0 0 0 0 0 0 0 0 0 1 2 2 2 1 1 1 0 0
2 1 0 0 0 0 0 0 0 0 0 0 0 0 0 0 0 0 0 0 0 0 0 0 0 0 0 0 0 0 0 0 0 0 0 1 1 1 1 0 0 0 0
3 2 1 0 0 0 0 0 0 0 0 0 0 0 0 0 0 0 0 0 0 0 0 0 0 0 0 0 0 0 0 0 0 0 0 0 1 1 1 0 0 0 0
4 3 2 1 0 0 0 0 0 0 0 0 0 0 0 0 0 0 0 0 0 0 0 0 0 0 0 0 0 0 0 0 0 0 0 0 0 0 0 0 1 1 0
4 4 4 2 1 1 0 0 0 0 0 0 0 0 0 0 0 0 0 0 0 0 0 0 0 0 0 0 0 0 0 0 0 0 0 0 0 0 0 0 1 1 1
2 4 4 3 3 2 2 1 0 0 0 0 0 0 0 0 0 0 0 0 0 0 0 0 0 0 0 0 0 0 0 0 0 0 0 0 0 0 0 0 1 1 0
2 4 5 4 4 4 4 3 2 1 1 0 0 0 0 0 0 0 0 0 0 0 0 0 0 0 0 0 0 0 0 0 0 0 0 0 0 0 0 0 0 0 0
3 4 4 4 3 4 5 4 3 2 2 1 0 0 0 0 0 0 0 0 0 0 0 0 0 0 0 0 0 0 0 0 0 0 0 0 0 0 0 0 0 0 0
3 3 4 3 3 3 4 5 4 3 3 2 1 0 0 0 0 0 0 0 0 0 0 0 0 0 0 0 0 0 0 0 0 0 0 0 0 0 0 0 0 0 0
4 4 3 3 3 3 4 5 5 4 3 2 1 1 1 0 0 0 0 0 0 0 0 0 0 0 0 0 0 0 0 0 0 0 0 0 0 0 0 0 0 0 0
4 4 4 3 3 3 3 4 5 4 2 2 2 2 2 1 0 0 0 0 0 0 0 0 0 0 0 0 0 0 0 0 0 0 0 0 0 0 0 0 0 0 0
4 4 4 3 3 3 3 4 4 4 2 1 1 2 2 2 1 0 0 0 0 0 0 0 0 0 0 0 0 0 0 0 0 0 0 0 0 0 0 0 0 0 0
Wind_Speed
6 8 9 9 10 10 9 9 9 9 8 8 8 8 9 9 10 10 10 11 11 11 11 11 11 11 11 11 11 10 10 9 8 8 8 8 8 8 8 8 7 6 8
9 10 10 10 10 10 9 9 8 8 8 8 8 8 9 9 9 9 10 10 10 10 10 11 11 11 11 10 10 10 9 8 7 6 7 8 8 8 8 9 8 6 8
10 10 10 10 9 9 9 9 8 8 8 8 8 9 8 8 9 9 10 10 10 10 10 10 10 10 10 10 9 9 9 8 7 6 5 4 5 8 9 9 9 9 9
11 10 9 10 10 9 9 9 9 9 9 9 9 8 8 8 8 9 9 10 10 10 10 10 10 10 9 9 9 8 8 8 8 7 5 6 5 9 10 9 9 9 9
11 10 9 10 10 9 10 10 9 9 9 9 8 9 8 9 9 9 9 9 9 10 10 10 10 9 9 9 8 8 8 8 8 7 6 6 6 9 10 10 10 10 9
11 11 9 10 10 10 10 9 9 9 9 9 9 9 9 9 9 9 9 9 9 9 9 9 9 9 9 9 8 8 8 8 6 5 6 6 6 10 11 10 10 10 9
10 10 9 10 10 10 10 10 10 9 9 9 9 9 9 9 9 9 8 8 8 8 9 9 9 9 9 8 7 7 8 8 4 5 6 6 7 11 11 10 10 9 9
9 10 9 10 10 10 10 9 9 9 9 9 9 9 9 9 9 8 8 9 9 9 9 9 8 8 8 7 7 7 8 8 7 8 7 6 10 11 11 10 10 9 9
7 8 8 8 8 9 9 9 8 8 8 8 9 9 8 8 8 9 9 9 9 9 9 8 8 7 6 6 5 6 8 8 6 5 8 6 10 11 11 11 10 10 10
6 6 7 7 7 7 6 8 8 7 7 7 7 7 7 7 7 8 8 8 8 8 7 7 6 5 4 3 3 4 6 6 5 7 5 6 11 12 11 11 10 10 10
5 5 6 6 5 6 6 7 7 7 6 6 5 6 6 4 4 5 8 8 7 6 5 4 4 3 2 0 1 3 4 3 6 6 5 9 11 11 11 11 11 11 11
5 5 5 6 5 5 5 5 3 4 4 3 3 3 2 3 4 6 7 7 6 5 4 4 3 3 2 1 0 2 2 5 5 5 6 11 12 12 11 11 11 11 11
5 4 5 5 5 5 3 3 2 1 1 1 2 3 2 2 3 4 3 3 3 4 2 3 2 2 1 2 2 3 5 5 5 5 6 12 12 12 12 12 11 11 12
5 4 5 4 5 5 4 3 2 1 1 2 1 2 2 1 1 2 2 2 2 1 1 1 0 2 3 4 4 5 6 4 5 4 6 12 13 13 13 13 13 12 11
5 4 4 3 3 5 4 2 3 2 1 2 1 1 3 2 2 2 2 2 2 2 2 1 2 4 4 5 5 6 6 6 6 5 5 12 12 12 12 12 12 12 11
5 4 3 4 4 5 3 2 3 2 2 2 1 0 2 2 2 2 2 2 2 2 1 2 3 3 3 4 4 5 4 5 4 5 5 7 11 12 12 12 12 12 11
5 4 3 3 4 4 4 3 2 1 2 2 1 1 2 2 2 3 3 2 2 2 3 3 3 3 3 3 3 4 3 4 4 4 4 4 5 9 11 11 11 11 11
4 5 5 4 4 4 3 2 1 1 2 2 1 1 2 2 3 3 2 2 2 2 3 2 2 2 2 2 2 2 2 3 3 3 3 4 3 4 6 10 10 10 10
5 5 6 4 4 4 3 2 1 1 2 1 1 1 1 2 3 3 2 1 2 2 2 2 2 2 2 2 2 2 2 2 2 3 3 4 4 4 4 6 9 10 10
4 5 6 5 4 4 2 2 2 2 1 1 2 2 2 2 2 3 2 2 3 3 2 2 2 2 1 1 1 2 1 2 2 2 3 3 3 4 4 4 4 5 8
3 4 5 5 3 3 2 2 1 1 1 1 2 2 2 1 2 3 2 2 2 2 2 2 2 2 1 1 2 1 1 2 2 2 2 2 3 3 3 3 3 3 3
4 3 5 4 4 3 3 2 2 2 2 1 2 2 1 1 1 2 2 2 2 2 2 1 2 1 0 0 1 1 1 2 2 1 1 2 2 2 2 4 4 4 3
4 4 4 4 4 4 3 2 1 2 1 2 1 1 1 1 2 2 2 2 2 2 2 1 1 1 0 1 1 1 1 1 0 1 1 1 2 2 2 2 3 4 4
4 3 4 4 4 4 3 2 3 2 1 1 1 2 1 1 2 2 1 1 2 2 2 1 1 1 1 1 1 1 1 2 1 0 2 1 2 2 2 2 3 3 4
3 3 3 4 4 4 3 3 2 2 1 1 2 2 1 1 2 2 1 1 1 1 1 1 1 1 1 1 0 0 1 1 1 2 0 1 1 1 1 2 2 3 3
4 3 3 3 3 4 4 3 2 2 2 2 1 2 1 1 1 2 1 1 1 1 1 1 1 1 1 1 1 1 1 1 0 1 1 1 1 1 1 1 2 2 2
Wind_Direction
95 95 90 89 84 81 80 79 77 76 76 76 79 79 75 74 72 69 69 70 70 70 67 65 65 63 61 59 58 57 56 58 62 70 70 68 63 58 54 56 61 68 78
104 99 92 88 86 83 81 79 77 76 77 80 83 82 79 77 77 74 71 71 72 71 68 68 65 63 60 57 55 53 50 48 52 64 71 70 65 60 59 61 64 70 73
104 104 95 88 87 83 82 80 76 76 76 77 85 85 84 81 79 77 74 71 72 73 70 67 65 65 62 57 53 50 44 39 39 48 54 69 68 63 64 67 70 71 72
98 97 94 92 87 83 78 76 75 75 76 78 86 88 89 88 84 79 76 73 73 74 72 70 67 66 63 57 52 45 37 32 30 30 52 56 58 67 66 67 68 69 71
93 95 96 94 90 85 79 77 78 77 80 82 88 92 90 89 87 81 76 75 76 76 74 71 67 66 64 59 51 40 30 25 29 38 58 61 57 65 68 68 68 70 71
98 99 101 98 92 88 84 81 80 83 84 85 89 93 92 90 90 85 80 78 79 77 75 71 67 66 63 58 48 34 22 18 28 54 61 60 58 63 67 69 69 69 69
105 108 111 104 99 94 89 85 85 86 86 89 92 94 91 90 91 88 85 83 80 78 77 73 70 67 62 54 42 30 20 15 50 64 67 63 60 63 66 68 69 68 69
110 114 117 115 111 103 97 93 91 91 88 89 93 94 95 94 93 90 87 85 82 81 81 76 72 68 61 55 45 29 17 17 49 66 72 66 65 63 61 63 68 69 70
110 120 130 132 124 116 109 105 101 102 101 98 101 105 106 107 105 99 90 88 86 85 85 84 80 75 68 60 45 29 23 27 36 53 68 64 64 64 63 61 64 67 69
118 125 128 133 136 133 126 119 115 116 120 120 121 127 127 125 121 112 102 96 93 92 93 94 97 95 87 69 37 20 25 34 53 58 56 62 66 65 63 64 65 66 67
119 119 124 125 128 129 133 133 139 139 141 145 151 165 166 156 141 121 110 115 114 116 117 124 135 137 136 135 351 6 32 64 69 64 53 63 67 66 65 64 67 67 67
126 122 121 121 126 124 117 128 148 144 149 172 154 159 157 108 107 115 124 135 142 147 150 173 184 190 206 203 75 35 62 68 65 65 58 66 67 66 64 65 68 69 70
133 125 117 123 124 120 117 120 109 109 148 131 109 127 116 104 126 130 142 154 167 174 180 174 207 208 156 108 87 83 70 67 65 61 60 67 68 67 64 65 66 68 69
113 112 115 118 121 120 112 112 129 118 113 95 103 114 113 107 104 107 122 130 141 133 97 70 22 60 61 68 73 77 76 81 81 76 67 70 69 68 66 66 65 66 67
115 108 112 117 120 113 105 144 127 116 94 100 86 128 119 119 109 97 100 90 83 82 81 52 43 52 49 45 54 66 73 80 90 87 74 72 71 69 68 68 67 66 66
121 118 116 131 115 112 121 121 96 115 127 101 79 127 120 121 124 118 96 87 78 83 73 64 67 62 59 60 57 58 68 77 88 102 103 81 74 70 68 68 67 67 66
138 136 131 123 108 102 96 80 91 95 104 103 87 33 79 94 95 92 89 87 83 80 71 61 59 56 70 68 65 64 66 75 88 97 109 112 90 75 74 70 66 64 63
145 144 138 132 126 111 103 80 71 83 89 95 92 45 63 77 85 83 83 88 86 75 74 78 65 65 63 64 61 55 63 68 71 87 106 110 109 99 82 77 69 63 62
155 148 135 136 132 118 118 125 101 82 88 101 96 61 61 69 81 90 82 94 92 80 73 74 67 68 73 71 77 72 64 73 66 65 77 94 104 115 112 93 80 69 63
152 144 138 142 144 134 127 114 101 89 88 84 89 73 51 56 79 91 89 79 81 77 64 63 74 63 78 83 79 84 92 100 75 57 59 69 80 97 109 116 105 79 69
147 135 130 136 142 131 123 116 111 106 88 70 86 83 67 44 64 85 88 80 85 94 95 86 84 77 59 86 76 49 33 72 96 83 63 69 69 69 88 102 102 101 84
141 136 141 143 137 126 129 136 140 138 127 104 81 78 87 56 76 90 101 91 90 99 96 96 95 83 327 12 121 115 65 19 14 99 92 81 86 78 66 76 82 84 82
146 148 146 140 135 128 127 125 113 81 86 89 95 90 71 50 69 77 84 113 129 131 140 121 110 106 0 331 35 103 119 151 331 2 97 108 98 90 77 67 74 78 79
154 148 141 139 130 124 129 131 137 133 131 134 130 130 128 121 97 104 113 110 123 125 135 160 145 135 120 316 337 13 96 131 135 52 349 42 96 96 87 76 73 78 84
138 134 134 130 124 129 135 129 136 132 136 120 113 111 108 97 95 95 86 74 99 117 137 137 121 122 141 174 233 7 11 14 62 118 177 337 18 57 98 96 91 84 84
128 124 119 129 130 135 138 134 140 129 121 110 99 106 109 103 90 85 86 87 128 136 138 149 134 130 103 80 39 47 87 96 98 105 152 179 163 235 132 101 105 105 95